Location: *
(44.1392°N, 4.8079°E)
Time: 20:05:35
(UTC+00:00)

deb Meteor - Visible Passes

Search period start: 16 January 2022 00:00
Search period end: 26 January 2022 00:00
Orbit: 853 x 923 km, 81.2° (Epoch: 15 January)

Date Brightness Start Highest point End Pass type
(mag) Time Alt. Az. Time Alt. Az. Time Alt. Az.
16 Jan ? 03:17:40 13° NNE 03:17:40 13° NNE 03:18:19 10° NNE visible
16 Jan ? 05:00:30 16° NNW 05:00:30 16° NNW 05:01:50 10° N visible
17 Jan ? 03:17:12 11° NNE 03:17:12 11° NNE 03:17:29 10° NNE visible
17 Jan ? 05:00:02 13° NNW 05:00:02 13° NNW 05:00:47 10° N visible
18 Jan ? 04:59:29 11° NNW 04:59:29 11° NNW 04:59:41 10° NNW visible
